EW7857 Weather Reports


Display with metric or nautical units.
time (UTC)temp
F
wind
direction
speed
MPH
gust
MPH
rain 1hr
in
rain 24hr
in
rain mn
in
humidity
%
barometer
mb
20260507003718 58 0 0.0 4.0 0.00 0.10 0.10 93 1006.7
20260507003003 58 0 0.0 4.0 0.00 0.10 0.10 93 1006.6
20260507002503 58 0 0.0 5.0 0.00 0.10 0.10 93 1006.6
20260507002216 58 0 0.0 5.0 0.00 0.10 0.10 93 1006.5
20260507001503 58 0 0.0 7.0 0.00 0.10 0.10 93 1006.5
20260507001216 58 0 0.0 7.0 0.00 0.10 0.10 93 1006.5
20260507000503 58 186 1.0 6.0 0.00 0.10 0.10 93 1006.5
20260507000003 58 118 1.0 5.0 0.00 0.10 0.10 93 1006.5
20260506235503 58 150 1.0 6.0 0.01 0.10 0.10 93 1006.3
20260506235003 58 0 0.0 6.0 0.01 0.10 0.10 93 1006.4
20260506234503 58 0 0.0 0.0 0.01 0.10 0.10 93 1006.4
20260506234003 58 0 0.0 0.0 0.01 0.10 0.10 93 1006.4
20260506233503 58 0 0.0 0.0 0.01 0.10 0.10 93 1006.4
20260506233003 58 0 0.0 0.0 0.01 0.10 0.10 93 1006.4
20260506232503 58 0 0.0 5.0 0.01 0.10 0.10 93 1006.4
20260506232218 58 0 0.0 8.0 0.01 0.10 0.10 93 1006.3
20260506231503 58 167 1.0 8.0 0.01 0.10 0.10 93 1006.3
20260506231003 58 177 1.0 7.0 0.01 0.10 0.10 93 1006.4
20260506230503 58 170 1.0 7.0 0.01 0.10 0.10 92 1006.3
20260506230003 58 171 1.0 7.0 0.01 0.10 0.10 92 1006.3
20260506225503 58 167 1.0 5.0 0.00 0.09 0.09 92 1006.3
20260506225003 58 168 1.0 5.0 0.00 0.09 0.09 92 1006.2
20260506224503 58 0 0.0 3.0 0.00 0.09 0.09 92 1006.2
20260506224003 58 0 0.0 2.0 0.00 0.09 0.09 92 1006.3
20260506223503 58 0 0.0 5.0 0.00 0.09 0.09 92 1006.2
20260506223218 58 165 1.0 7.0 0.00 0.09 0.09 92 1006.2
20260506222503 58 171 1.0 7.0 0.02 0.09 0.09 92 1006.1
20260506222003 58 0 0.0 4.0 0.02 0.09 0.09 92 1006.2
20260506221504 58 0 0.0 0.0 0.02 0.09 0.09 91 1006.2
20260506221218 58 0 0.0 0.0 0.03 0.09 0.09 91 1006.2
20260506220503 58 0 0.0 4.0 0.03 0.09 0.09 91 1006.2
20260506220003 58 159 1.0 8.0 0.03 0.09 0.09 91 1006.1
20260506215503 58 162 1.0 8.0 0.04 0.09 0.09 91 1006.2
20260506215003 58 161 1.0 10.0 0.04 0.09 0.09 91 1006.2
20260506214503 59 0 0.0 10.0 0.04 0.09 0.09 91 1006.1
20260506214003 59 0 0.0 4.0 0.04 0.09 0.09 91 1006.0
20260506213716 59 0 0.0 1.0 0.04 0.09 0.09 91 1006.2
20260506213003 59 0 0.0 6.0 0.04 0.08 0.08 91 1006.3
20260506212503 59 0 0.0 3.0 0.03 0.07 0.07 91 1006.4
20260506212003 59 150 1.0 10.0 0.03 0.07 0.07 91 1006.6
20260506211503 59 148 1.0 10.0 0.03 0.07 0.07 90 1006.6
20260506211003 59 0 0.0 2.0 0.02 0.06 0.06 90 1006.7
20260506210718 59 0 0.0 2.0 0.02 0.06 0.06 90 1006.6
20260506210003 59 0 0.0 2.0 0.02 0.06 0.06 90 1006.8
20260506205718 59 0 0.0 5.0 0.01 0.05 0.05 90 1006.8
20260506205217 59 0 0.0 6.0 0.01 0.05 0.05 90 1006.6
20260506204718 59 0 0.0 6.0 0.01 0.05 0.05 90 1006.7
20260506204003 59 0 0.0 6.0 0.01 0.05 0.05 89 1006.8
20260506203503 59 140 1.0 11.0 0.00 0.04 0.04 89 1006.9
20260506203003 59 143 1.0 11.0 0.00 0.04 0.04 89 1006.9
20260506202503 59 164 1.0 8.0 0.00 0.04 0.04 89 1007.0
20260506202003 59 0 0.0 7.0 0.01 0.04 0.04 89 1006.9
20260506201503 60 0 0.0 10.0 0.01 0.04 0.04 89 1006.9
20260506201003 59 0 0.0 10.0 0.01 0.04 0.04 89 1006.9
20260506200503 59 131 1.0 10.0 0.01 0.04 0.04 89 1007.0
20260506200217 59 130 1.0 10.0 0.01 0.04 0.04 88 1007.1
20260506195718 59 0 0.0 9.0 0.02 0.04 0.04 89 1007.1
20260506195003 60 165 2.0 9.0 0.03 0.04 0.04 89 1007.3
20260506194503 60 155 1.0 8.0 0.03 0.04 0.04 89 1007.3
20260506194003 60 145 1.0 16.0 0.03 0.04 0.04 89 1007.3
20260506193503 60 0 0.0 16.0 0.03 0.04 0.04 89 1007.4
20260506193003 60 0 0.0 4.0 0.03 0.04 0.04 89 1007.4
20260506192503 60 0 0.0 0.0 0.04 0.04 0.04 88 1007.5
20260506192217 60 0 0.0 0.0 0.03 0.03 0.03 88 1007.5
20260506191503 60 0 0.0 5.0 0.03 0.03 0.03 88 1007.5
20260506191003 60 0 0.0 5.0 0.03 0.03 0.03 87 1007.6
20260506190503 60 0 0.0 4.0 0.03 0.03 0.03 86 1007.5
20260506190004 60 0 0.0 4.0 0.03 0.03 0.03 86 1007.5
20260506185503 60 0 0.0 2.0 0.02 0.02 0.02 86 1007.6
20260506185003 60 0 0.0 0.0 0.01 0.01 0.01 85 1007.6
20260506184503 61 0 0.0 5.0 0.01 0.01 0.01 85 1007.5
20260506184003 61 171 1.0 12.0 0.01 0.01 0.01 84 1007.7
20260506183503 61 176 1.0 12.0 0.01 0.01 0.01 83 1007.8
20260506183003 61 0 0.0 9.0 0.01 0.01 0.01 82 1007.8
20260506182503 61 0 0.0 9.0 0.00 0.00 0.00 81 1008.0
20260506182003 62 0 0.0 9.0 0.00 0.00 0.00 81 1008.1
20260506181503 62 200 1.0 11.0 0.00 0.00 0.00 80 1008.3
20260506181003 62 177 2.0 11.0 0.00 0.00 0.00 78 1008.5
20260506180503 63 175 3.0 9.0 0.00 0.00 0.00 77 1008.5
20260506180004 63 170 3.0 15.0 0.00 0.00 0.00 76 1008.3
20260506175503 63 171 2.0 15.0 0.00 0.00 0.00 75 1008.3
20260506175003 64 0 0.0 9.0 0.00 0.00 0.00 74 1008.7
20260506174717 64 0 0.0 8.0 0.00 0.00 0.00 74 1008.5
20260506174003 64 186 2.0 17.0 0.00 0.00 0.00 74 1008.6
20260506173717 64 193 2.0 17.0 0.00 0.00 0.00 73 1008.7
20260506173003 64 184 3.0 16.0 0.00 0.00 0.00 72 1008.6
20260506172503 65 171 3.0 16.0 0.00 0.00 0.00 71 1008.7
20260506172003 65 162 2.0 12.0 0.00 0.00 0.00 71 1008.9
20260506171503 66 175 2.0 13.0 0.00 0.00 0.00 70 1009.0
20260506171218 66 186 2.0 13.0 0.00 0.00 0.00 70 1008.9
20260506170503 66 0 0.0 7.0 0.00 0.00 0.00 70 1009.0
20260506170003 66 0 0.0 10.0 0.00 0.00 0.00 70 1009.1
20260506165503 66 183 2.0 11.0 0.00 0.00 0.00 70 1009.0
20260506165003 66 186 2.0 16.0 0.00 0.00 0.00 69 1009.0
20260506164503 67 187 2.0 16.0 0.00 0.00 0.00 68 1008.8
20260506164217 67 162 1.0 10.0 0.00 0.00 0.00 68 1008.8
20260506163503 68 177 2.0 15.0 0.00 0.00 0.00 68 1008.9
20260506163003 68 194 3.0 16.0 0.00 0.00 0.00 67 1009.0
20260506162503 68 190 2.0 16.0 0.00 0.00 0.00 66 1009.0
20260506162217 69 180 1.0 15.0 0.00 0.00 0.00 66 1009.1
20260506161503 68 0 0.0 11.0 0.00 0.00 0.00 68 1009.1
20260506161003 68 178 1.0 11.0 0.00 0.00 0.00 69 1009.3
20260506160503 68 194 1.0 11.0 0.00 0.00 0.00 67 1009.5
20260506160003 68 183 1.0 8.0 0.00 0.00 0.00 67 1009.4
20260506155503 68 155 1.0 8.0 0.00 0.00 0.00 66 1009.4
20260506155003 69 134 1.0 10.0 0.00 0.00 0.00 66 1009.5
20260506154503 69 175 2.0 10.0 0.00 0.00 0.00 66 1009.5
20260506154003 69 178 3.0 12.0 0.00 0.00 0.00 66 1009.5
20260506153503 69 175 2.0 12.0 0.00 0.00 0.00 64 1009.6
20260506153003 70 180 2.0 9.0 0.00 0.00 0.00 63 1009.4
20260506152503 71 172 2.0 11.0 0.00 0.00 0.00 64 1009.4
20260506152003 71 164 2.0 13.0 0.00 0.00 0.00 63 1009.4
20260506151503 71 152 2.0 13.0 0.00 0.00 0.00 62 1009.4
20260506151003 71 142 1.0 8.0 0.00 0.00 0.00 62 1009.4
20260506150503 71 187 2.0 9.0 0.00 0.00 0.00 66 1009.6
20260506150004 71 199 2.0 9.0 0.00 0.00 0.00 66 1009.5
20260506145503 70 169 1.0 10.0 0.00 0.00 0.00 65 1009.6
20260506145003 69 154 1.0 14.0 0.00 0.00 0.00 65 1009.5
20260506144503 70 146 1.0 14.0 0.00 0.00 0.00 64 1009.6
20260506144003 70 166 1.0 12.0 0.00 0.00 0.00 65 1009.7
20260506143718 70 167 1.0 12.0 0.00 0.00 0.00 66 1009.8
20260506143003 69 215 1.0 9.0 0.00 0.00 0.00 66 1009.9
20260506142503 69 207 1.0 10.0 0.00 0.00 0.00 66 1009.8
20260506142003 69 0 0.0 10.0 0.00 0.00 0.00 66 1009.8
20260506141503 69 0 0.0 5.0 0.00 0.00 0.00 67 1009.8
20260506141003 68 170 1.0 9.0 0.00 0.00 0.00 68 1009.8
20260506140718 68 169 1.0 9.0 0.00 0.00 0.00 69 1009.8
20260506140003 67 178 1.0 6.0 0.00 0.00 0.00 70 1009.8
20260506135503 67 163 2.0 14.0 0.00 0.00 0.00 70 1009.7
20260506135217 67 158 1.0 14.0 0.00 0.00 0.00 70 1009.7
20260506134503 66 0 0.0 10.0 0.00 0.00 0.00 71 1009.6
20260506134003 66 167 2.0 10.0 0.00 0.00 0.00 71 1009.8
20260506133503 66 174 2.0 10.0 0.00 0.00 0.00 72 1009.5
20260506133003 66 0 0.0 10.0 0.00 0.00 0.00 73 1009.5
20260506132503 66 0 0.0 3.0 0.00 0.00 0.00 72 1009.8
20260506132003 65 0 0.0 7.0 0.00 0.00 0.00 73 1009.8
20260506131503 65 159 1.0 8.0 0.00 0.00 0.00 74 1009.8
20260506131003 64 163 1.0 8.0 0.00 0.00 0.00 74 1009.8
20260506130503 64 173 1.0 8.0 0.00 0.00 0.00 76 1010.0
20260506130004 63 173 1.0 7.0 0.00 0.00 0.00 77 1010.1
20260506125503 63 172 1.0 12.0 0.00 0.00 0.00 77 1010.2
20260506125003 62 174 1.0 12.0 0.00 0.00 0.00 77 1010.1
20260506124503 62 175 1.0 8.0 0.00 0.00 0.00 78 1010.1
20260506124003 62 164 1.0 8.0 0.00 0.00 0.00 78 1010.2
20260506123503 62 159 1.0 8.0 0.00 0.00 0.00 78 1010.0
20260506123218 62 165 1.0 8.0 0.00 0.00 0.00 79 1010.1
20260506122503 62 168 1.0 13.0 0.00 0.00 0.00 79 1010.2
20260506122003 62 165 1.0 13.0 0.00 0.00 0.00 79 1010.2
20260506121717 62 148 1.0 9.0 0.00 0.00 0.00 79 1010.3
20260506121218 62 178 1.0 7.0 0.00 0.00 0.00 81 1010.0
20260506120503 61 0 0.0 10.0 0.00 0.00 0.00 82 1010.1
20260506120003 61 0 0.0 10.0 0.00 0.00 0.00 82 1010.1
20260506115503 60 0 0.0 0.0 0.00 0.00 0.00 83 1010.2
20260506115003 60 0 0.0 0.0 0.00 0.00 0.00 83 1010.2
20260506114503 60 0 0.0 7.0 0.00 0.00 0.00 84 1010.3
20260506114003 60 163 1.0 8.0 0.00 0.00 0.00 84 1010.3
20260506113503 60 181 1.0 8.0 0.00 0.00 0.00 84 1010.3
20260506113003 60 177 1.0 7.0 0.00 0.00 0.00 84 1010.4
20260506112503 59 178 1.0 7.0 0.00 0.00 0.00 84 1010.3
20260506112003 59 0 0.0 7.0 0.00 0.00 0.00 85 1010.2
20260506111503 59 0 0.0 7.0 0.00 0.00 0.00 85 1010.3
20260506111003 59 0 0.0 2.0 0.00 0.00 0.00 85 1010.4
20260506110503 59 0 0.0 0.0 0.00 0.00 0.00 86 1010.5
20260506110217 59 0 0.0 0.0 0.00 0.00 0.00 86 1010.5
20260506105503 58 0 0.0 4.0 0.00 0.00 0.00 86 1010.3
20260506105003 58 0 0.0 4.0 0.00 0.00 0.00 86 1010.4
20260506104503 58 0 0.0 0.0 0.00 0.00 0.00 86 1010.2
20260506104217 58 0 0.0 0.0 0.00 0.00 0.00 86 1010.2
20260506103503 58 0 0.0 2.0 0.00 0.00 0.00 86 1010.3
20260506103003 58 0 0.0 2.0 0.00 0.00 0.00 86 1010.2
20260506102503 58 0 0.0 1.0 0.00 0.00 0.00 85 1010.2
20260506102003 58 0 0.0 0.0 0.00 0.00 0.00 85 1010.1
20260506101503 58 0 0.0 0.0 0.00 0.00 0.00 85 1010.1
20260506101003 59 0 0.0 5.0 0.00 0.00 0.00 85 1010.1
20260506100503 59 0 0.0 5.0 0.00 0.00 0.00 85 1010.1
20260506100003 59 0 0.0 5.0 0.00 0.00 0.00 85 1010.1
20260506095718 59 0 0.0 0.0 0.00 0.00 0.00 85 1010.1
20260506095003 59 0 0.0 5.0 0.00 0.00 0.00 85 1010.1
20260506094503 59 0 0.0 4.0 0.00 0.00 0.00 84 1010.1
20260506094003 59 0 0.0 0.0 0.00 0.00 0.00 84 1010.1
20260506093503 59 0 0.0 0.0 0.00 0.00 0.00 84 1010.0
20260506093003 59 0 0.0 2.0 0.00 0.00 0.00 84 1010.0
20260506092503 59 325 1.0 8.0 0.00 0.00 0.00 83 1010.1
20260506092003 59 323 1.0 8.0 0.00 0.00 0.00 83 1010.1
20260506091503 59 0 0.0 9.0 0.00 0.00 0.00 83 1010.0
20260506091003 59 179 1.0 9.0 0.00 0.00 0.00 83 1010.1
20260506090503 59 179 2.0 13.0 0.00 0.00 0.00 83 1010.1
20260506090003 59 180 1.0 13.0 0.00 0.00 0.00 83 1010.2
20260506085503 59 0 0.0 5.0 0.00 0.00 0.00 82 1010.2
20260506085003 59 0 0.0 2.0 0.00 0.00 0.00 82 1010.3
20260506084503 59 0 0.0 4.0 0.00 0.00 0.00 82 1010.2
20260506084003 59 0 0.0 4.0 0.00 0.00 0.00 82 1010.2
20260506083503 59 0 0.0 6.0 0.00 0.00 0.00 82 1010.3
20260506083003 59 172 1.0 10.0 0.00 0.00 0.00 82 1010.4
20260506082503 60 163 1.0 10.0 0.00 0.00 0.00 82 1010.4
20260506082003 60 0 0.0 8.0 0.00 0.00 0.00 81 1010.5
20260506081718 60 0 0.0 8.0 0.00 0.00 0.00 82 1010.4
20260506081003 60 0 0.0 8.0 0.00 0.00 0.00 81 1010.4
20260506080503 60 0 0.0 8.0 0.00 0.00 0.00 81 1010.4
20260506080218 60 0 0.0 8.0 0.00 0.00 0.00 81 1010.4
20260506073503 60 188 1.0 9.0 0.00 0.00 0.00 80 1010.4
20260506073003 60 191 1.0 8.0 0.00 0.00 0.00 80 1010.4
20260506072503 60 187 2.0 11.0 0.00 0.00 0.00 80 1010.4
20260506072003 60 144 1.0 11.0 0.00 0.00 0.00 80 1010.4
20260506071503 60 145 1.0 10.0 0.00 0.00 0.00 80 1010.3
20260506071003 60 156 1.0 10.0 0.00 0.00 0.00 80 1010.3
20260506070503 60 160 1.0 12.0 0.00 0.00 0.00 80 1010.2
20260506062003 60 161 2.0 14.0 0.00 0.00 0.00 79 1010.3
20260506061503 60 137 1.0 14.0 0.00 0.00 0.00 79 1010.4
20260506061003 60 167 1.0 8.0 0.00 0.00 0.00 78 1010.3
20260506060503 60 175 1.0 8.0 0.00 0.00 0.00 78 1010.4
20260506051003 62 167 1.0 9.0 0.00 0.00 0.00 75 1010.8
20260506050503 62 152 1.0 9.0 0.00 0.00 0.00 74 1010.8
20260506045003 62 149 1.0 9.0 0.00 0.00 0.00 73 1010.8
20260506044503 62 164 1.0 10.0 0.00 0.00 0.00 73 1010.8
20260506044217 62 176 1.0 10.0 0.00 0.00 0.00 73 1010.7
20260506043503 62 162 2.0 10.0 0.00 0.00 0.00 73 1011.0
20260506043003 62 193 1.0 10.0 0.00 0.00 0.00 72 1011.0
20260506042718 62 181 1.0 9.0 0.00 0.00 0.00 72 1010.9
20260506042003 62 167 1.0 13.0 0.00 0.00 0.00 72 1010.9
20260506041503 63 0 0.0 13.0 0.00 0.00 0.00 71 1010.9
20260506041003 63 0 0.0 12.0 0.00 0.00 0.00 71 1011.0
20260506040503 63 173 1.0 14.0 0.00 0.00 0.00 71 1010.9
20260506040003 63 161 2.0 14.0 0.00 0.00 0.00 70 1010.9
20260506035503 63 183 3.0 10.0 0.00 0.00 0.00 70 1011.0
20260506035003 63 184 2.0 11.0 0.00 0.00 0.00 70 1011.0
20260506034503 63 159 1.0 11.0 0.00 0.00 0.00 70 1011.0
20260506034003 63 186 1.0 9.0 0.00 0.00 0.00 69 1010.8
20260506033503 63 188 1.0 9.0 0.00 0.00 0.00 69 1011.0
20260506033004 63 0 0.0 4.0 0.00 0.00 0.00 69 1011.0
20260506032503 63 0 0.0 7.0 0.00 0.00 0.00 68 1010.9
20260506032003 63 0 0.0 7.0 0.00 0.00 0.00 68 1010.9
20260506031503 63 140 1.0 7.0 0.00 0.00 0.00 68 1010.9
20260506031003 63 138 1.0 7.0 0.00 0.00 0.00 68 1010.8
20260506030503 63 154 1.0 6.0 0.00 0.00 0.00 68 1010.6
20260506030003 63 159 1.0 8.0 0.00 0.00 0.00 67 1010.9
20260506025503 63 154 1.0 8.0 0.00 0.00 0.00 67 1010.8
20260506025003 63 212 2.0 11.0 0.00 0.00 0.00 67 1010.8
20260506024717 63 210 2.0 11.0 0.00 0.00 0.00 67 1010.7
20260506024003 63 168 3.0 13.0 0.00 0.00 0.00 67 1010.7
20260506023503 63 165 3.0 13.0 0.00 0.00 0.00 67 1010.7
20260506023218 63 171 3.0 10.0 0.00 0.00 0.00 67 1010.6
20260506022717 63 188 2.0 12.0 0.00 0.00 0.00 67 1010.6
20260506022003 63 184 3.0 12.0 0.00 0.00 0.00 67 1010.5
20260506021503 63 179 1.0 9.0 0.00 0.00 0.00 67 1010.5
20260506021003 63 145 1.0 11.0 0.00 0.00 0.00 67 1010.6
20260506020503 63 147 2.0 11.0 0.00 0.00 0.00 67 1010.5
20260506020003 63 0 0.0 10.0 0.00 0.00 0.00 67 1010.5
20260506015503 63 154 1.0 10.0 0.00 0.00 0.00 67 1010.5
20260506015003 63 152 1.0 10.0 0.00 0.00 0.00 67 1010.5
20260506014503 63 0 0.0 3.0 0.00 0.00 0.00 67 1010.5
20260506014003 63 178 1.0 12.0 0.00 0.00 0.00 67 1010.5
20260506013503 63 173 2.0 14.0 0.00 0.00 0.00 67 1010.3
20260506013003 63 177 1.0 14.0 0.00 0.00 0.00 67 1010.3
20260506012717 63 192 1.0 8.0 0.00 0.00 0.00 67 1010.3
20260506012218 63 171 2.0 11.0 0.00 0.00 0.00 68 1010.3
20260506011504 62 186 1.0 11.0 0.00 0.00 0.00 68 1010.3
20260506011003 62 185 2.0 9.0 0.00 0.00 0.00 69 1010.2
20260506010503 62 184 2.0 9.0 0.00 0.00 0.00 70 1010.1
20260506010003 61 0 0.0 6.0 0.00 0.00 0.00 70 1010.1
20260506005503 61 0 0.0 1.0 0.00 0.00 0.00 70 1010.1
20260506005003 61 0 0.0 9.0 0.00 0.00 0.00 70 1010.0
20260506004504 61 0 0.0 9.0 0.00 0.00 0.00 70 1010.0